STARLINK-4398, 53466

Orbit data source: Space-Track

STARLINK-4398, 53466 is a payload satellite owned by SpaceX/Seattle (US) in SSO that was launched on Fri, 12 Aug 2022 UTC via an FALCON 9 launch vehicle from the Air Force Western Test Range (AFWTR). Payload-class satellites include a variety of spacecraft equipped with specific instruments for various scientific and technological missions. These include communications satellites like Starlink; space stations such as the ISS; scientific satellites like the Hubble; Earth observation satellites from companies like Planet Labs, Umbra, and HawkEye 360; GPS; miniature CubeSats for education and research; and military/defense satellites.

Loading next visibility...
Identifier
53466, 2022-099B
Orbit
SSO
Country
Flag of USUS
Related business
Manufacturer
SpaceX/Seattle
Mission
Operational Commercial Communications
Bus & Motor
STARLINK, Unknown motor
Mass
300 kg wet, ~275 kg dry
Launch date (UTC)
2022-08-12 (3 years ago)
Launch vehicle
FALCON 9
Launch site
Air Force Western Test Range (AFWTR)
Object type
Payload
Rocket body
Debris
Shape & HBR
Box + 1 Pan, 10.1 m
Radar Cross Section
13.562 m², Large (>1 m²)

Expand to show TLE details & history
Last TLE update: 16 hours ago

TLE from 16 hours ago
0 STARLINK-4398
1 53466U 22099B   25293.29136722  .00000569  00000-0  48827-4 0  9992
2 53466  97.6055  52.7567 0001778 240.3597 119.7451 15.01262682174916
Epoch: 2025-10-20T06:59Z
TLE epoch observation values (Epoch: 2025-10-20T06:59:34.127Z)
Latitude
0.00001°
Longitude
-81.13128°
Altitude
566.673 km
Speed
7.577 km/s
True Right ascension
03h 31m 01s
True Declination
0° 00' 00"
Sunlit
Object was in full shadow at epoch
Visualization orbit readout
Latitude
Unknown
Longitude
Unknown
Altitude
Unknown
Speed
Unknown
Apparent Right ascension
Unknown
Apparent Declination
Unknown
Sunlit
N/A
Visualization observer readout
Local Sidereal Time
18:16:50
Azimuth
Unknown
Elevation
Unknown
Doppler factor
Unknown
Orbital elements
Apogee altitude
561.235 km
Perigee altitude
558.767 km
Semi-major axis
6,938.138 km
Eccentricity
0.00018
Inclination
97.6055°
RAAN
52.7567°
Arg. of periapsis
240.3597°
True anomaly
119.76279°
Mean anomaly
119.7451°
Eccentric anomaly
119.75394°
Mean motion
3.7556 °/min
Orbital period
95.86 mins
BSTAR
0.000048827
Loading maneuver chart data...
Computing Atmospheric mass density...
Loading historical data...
Loading historical data...
Loading historical data...
Loading historical data...
Loading historical data...
Loading historical data...
Loading historical data...

Documentation

Showing up to 5 results
|